Regional Weather Roundup
Issued by NWS Cleveland, OH

Home | Current Version | Previous Version | Graphics & Text | Print | Product List | Glossary On
Versions: 1 2 3 4 5 6 7 8 9 10 11 12 13 14 15 16 17 18 19 20 21 22 23 24 25 26 27 28 29 30 31 32 33 34 35 36 37 38 39 40 41 42 43 44 45 46 47 48 49 50
000
ASUS41 KCLE 292102
RWRCLE
OHIO REGIONAL WEATHER ROUNDUP
NATIONAL WEATHER SERVICE CLEVELAND, OH
500 PM EDT FRI MAY 29 2015

NOTE: "FAIR" INDICATES FEW OR NO CLOUDS BELOW 12,000 FEET WITH NO
SIGNIFICANT WEATHER AND/OR OBSTRUCTIONS TO VISIBILITY.

OHZ001>008-015>018-024>027-034-035-043-044-292200-
   NORTHWEST OHIO

CITY           SKY/WX    TMP DP  RH WIND       PRES   REMARKS
DEFIANCE       MOSUNNY   84  63  49 S12       30.01F
FINDLAY        MOSUNNY   83  67  58 S17       30.04F
TOLEDO EXPRESS MOSUNNY   85  64  49 SW10      30.02F
TOLEDO EXEC    MOSUNNY   84  65  52 S15G22    30.04F
LIMA           PTSUNNY   82  65  56 S15       30.05F
$$

OHZ009>014-019>023-028>033-038-089-292200-
   NORTHEAST OHIO

CITY           SKY/WX    TMP DP  RH WIND       PRES   REMARKS
CLE-HOPKINS    PTSUNNY   78  66  66 NE6       30.09F
CLE-LAKEFRONT  PTSUNNY   69  62  78 NE8       30.08S
CUY CO. ARPT   PTSUNNY   77  63  61 NW16      30.11R
LORAIN-ELYRIA  PTSUNNY   83  64  52 SW16      30.07F
ASHTABULA      PTSUNNY   81  63  54 S18G30    30.10F
AKRON-CANTON   PTSUNNY   83  66  56 SW12G30   30.11F
WOOSTER        MOSUNNY   81  66  60 S12G20    30.10F
MANSFIELD      MOSUNNY   82  65  56 S13       30.09F
YOUNGSTOWN     PTSUNNY   83  64  52 S9        30.11F
$$

OHZ042-051>053-060>062-070>072-077>081-292200-
  SOUTHWEST OHIO

CITY           SKY/WX    TMP DP  RH WIND       PRES   REMARKS
CINC-COVINGTON PTSUNNY   83  67  58 S10       30.08
CINC-LUNKEN    SUNNY     83  67  58 SW12      30.07F
HAMILTON       MOSUNNY   84  66  54 VRB6      30.07F
DAYTON         PTSUNNY   84  65  52 SW12G21   30.08F
WRIGHT-PAT AFB SUNNY     84  64  51 S12G22    30.07F
DAYTON GENERAL MOSUNNY   83  65  54 SW12G21   30.08F
WILMINGTON     SUNNY     84  61  45 S15       30.09F
$$

OHZ036-037-039>041-045>050-054>059-063>069-073>076-082>088-292200-
  CENTRAL AND SOUTHEAST OHIO

CITY           SKY/WX    TMP DP  RH WIND       PRES   REMARKS
COLUMBUS       PTSUNNY   83  65  54 SW9       30.09F
OSU AIRPORT    MOSUNNY   83  65  54 S12       30.08F
BOLTON FIELD   MOSUNNY   84  66  54 S15       30.09
RICKENBACK AFB NOT AVBL
NEWARK         PTSUNNY   81  66  60 S8        30.10F
MARION         PTSUNNY   85  63  47 SW14G26   30.07F
LANCASTER      MOSUNNY   83  65  54 SW9       30.11F
ZANESVILLE     NOT AVBL
NEW PHILLY     PTSUNNY   85  66  53 S3        30.11F
$$



USA.gov is the U.S. government's official web portal to all federal, state and local government web resources and services.